| time (UTC) | temp F | wind direction | speed MPH | gust MPH | rain 1hr in | rain 24hr in | rain mn in | humidity % | barometer mb |
| 20260509024058 | 72 | 192 | 5.0 | 7.0 | 0.00 | 0.00 | 0.00 | 51 | 1002.4 |
| 20260509023814 | 72 | 167 | 4.0 | 7.0 | 0.00 | 0.00 | 0.00 | 49 | 1002.6 |
| 20260509023045 | 73 | 214 | 5.0 | 7.0 | 0.00 | 0.00 | 0.00 | 47 | 1002.7 |
| 20260509022524 | 72 | 170 | 4.0 | 7.0 | 0.00 | 0.00 | 0.00 | 51 | 1002.7 |
| 20260509022024 | 74 | 200 | 6.0 | 6.0 | 0.00 | 0.00 | 0.00 | 47 | 1002.8 |
| 20260509021755 | 71 | 167 | 3.0 | 6.0 | 0.00 | 0.00 | 0.00 | 50 | 1002.7 |
| 20260509021240 | 71 | 162 | 4.0 | 6.0 | 0.00 | 0.00 | 0.00 | 52 | 1003.0 |
| 20260509020527 | 72 | 158 | 5.0 | 8.0 | 0.00 | 0.00 | 0.00 | 52 | 1003.0 |
| 20260509020010 | 73 | 179 | 4.0 | 8.0 | 0.00 | 0.00 | 0.00 | 48 | 1003.1 |
| 20260509015506 | 72 | 176 | 4.0 | 7.0 | 0.00 | 0.00 | 0.00 | 50 | 1003.2 |
| 20260509015002 | 73 | 164 | 5.0 | 7.0 | 0.00 | 0.00 | 0.00 | 49 | 1003.1 |
| 20260509014447 | 72 | 161 | 4.0 | 6.0 | 0.00 | 0.00 | 0.00 | 52 | 1003.2 |
| 20260509013933 | 73 | 180 | 4.0 | 6.0 | 0.00 | 0.00 | 0.00 | 52 | 1003.2 |
| 20260509013430 | 71 | 189 | 4.0 | 6.0 | 0.00 | 0.00 | 0.00 | 49 | 1003.5 |
| 20260509012925 | 71 | 151 | 6.0 | 6.0 | 0.00 | 0.00 | 0.00 | 52 | 1003.4 |
| 20260509012420 | 73 | 180 | 3.0 | 6.0 | 0.00 | 0.00 | 0.00 | 51 | 1003.5 |
| 20260509011917 | 72 | 193 | 5.0 | 6.0 | 0.00 | 0.00 | 0.00 | 51 | 1003.4 |
| 20260509011413 | 70 | 165 | 5.0 | 6.0 | 0.00 | 0.00 | 0.00 | 53 | 1003.7 |
| 20260509010909 | 70 | 165 | 5.0 | 6.0 | 0.00 | 0.00 | 0.00 | 54 | 1003.5 |
| 20260509010405 | 71 | 168 | 4.0 | 6.0 | 0.00 | 0.00 | 0.00 | 53 | 1003.7 |
| 20260509005901 | 69 | 215 | 5.0 | 7.0 | 0.00 | 0.00 | 0.00 | 55 | 1003.6 |
| 20260509005346 | 70 | 173 | 4.0 | 7.0 | 0.00 | 0.00 | 0.00 | 52 | 1003.9 |
| 20260509005107 | 70 | 171 | 5.0 | 6.0 | 0.00 | 0.00 | 0.00 | 54 | 1003.7 |
| 20260509004338 | 70 | 175 | 3.0 | 6.0 | 0.00 | 0.00 | 0.00 | 55 | 1003.8 |
| 20260509003821 | 69 | 167 | 5.0 | 6.0 | 0.00 | 0.00 | 0.00 | 54 | 1003.9 |
| 20260509003322 | 69 | 166 | 4.0 | 6.0 | 0.00 | 0.00 | 0.00 | 53 | 1004.0 |
| 20260509003041 | 70 | 166 | 5.0 | 7.0 | 0.00 | 0.00 | 0.00 | 52 | 1003.8 |
| 20260509002321 | 69 | 182 | 5.0 | 7.0 | 0.00 | 0.00 | 0.00 | 53 | 1003.9 |
| 20260509001817 | 68 | 180 | 5.0 | 7.0 | 0.00 | 0.00 | 0.00 | 52 | 1003.9 |
| 20260509001313 | 69 | 161 | 4.0 | 7.0 | 0.00 | 0.00 | 0.00 | 51 | 1004.0 |
| 20260509000810 | 68 | 170 | 4.0 | 6.0 | 0.00 | 0.00 | 0.00 | 52 | 1003.9 |
| 20260509000307 | 67 | 175 | 3.0 | 6.0 | 0.00 | 0.00 | 0.00 | 54 | 1003.8 |
| 20260508235750 | 68 | 157 | 4.0 | 6.0 | 0.00 | 0.00 | 0.00 | 53 | 1003.8 |
| 20260508235247 | 67 | 164 | 6.0 | 6.0 | 0.00 | 0.00 | 0.00 | 52 | 1004.0 |
| 20260508234721 | 66 | 164 | 5.0 | 6.0 | 0.00 | 0.00 | 0.00 | 54 | 1003.8 |
| 20260508234218 | 67 | 162 | 5.0 | 6.0 | 0.00 | 0.00 | 0.00 | 52 | 1003.8 |
| 20260508233714 | 67 | 173 | 4.0 | 6.0 | 0.00 | 0.00 | 0.00 | 54 | 1003.8 |
| 20260508233209 | 67 | 156 | 4.0 | 6.0 | 0.00 | 0.00 | 0.00 | 53 | 1004.0 |
| 20260508232926 | 66 | 168 | 4.0 | 6.0 | 0.00 | 0.00 | 0.00 | 56 | 1004.0 |
| 20260508232640 | 67 | 165 | 4.0 | 6.0 | 0.00 | 0.00 | 0.00 | 57 | 1003.7 |
| 20260508231904 | 67 | 180 | 3.0 | 6.0 | 0.00 | 0.00 | 0.00 | 64 | 1003.9 |
| 20260508231143 | 65 | 173 | 4.0 | 6.0 | 0.00 | 0.00 | 0.00 | 66 | 1003.7 |
| 20260508230904 | 66 | 191 | 4.0 | 6.0 | 0.00 | 0.00 | 0.00 | 64 | 1003.6 |
| 20260508230135 | 64 | 176 | 4.0 | 7.0 | 0.00 | 0.00 | 0.00 | 68 | 1003.7 |
| 20260508225630 | 61 | 180 | 4.0 | 7.0 | 0.00 | 0.00 | 0.00 | 73 | 1003.7 |
| 20260508225127 | 60 | 194 | 4.0 | 7.0 | 0.00 | 0.00 | 0.00 | 74 | 1003.6 |
| 20260508224621 | 61 | 191 | 5.0 | 7.0 | 0.00 | 0.00 | 0.00 | 72 | 1003.6 |
| 20260508224341 | 60 | 196 | 5.0 | 7.0 | 0.00 | 0.00 | 0.00 | 74 | 1003.5 |
| 20260508223615 | 59 | 201 | 5.0 | 7.0 | 0.00 | 0.00 | 0.00 | 76 | 1003.6 |
| 20260508223110 | 58 | 197 | 5.0 | 8.0 | 0.00 | 0.00 | 0.00 | 78 | 1003.5 |
| 20260508222607 | 57 | 200 | 6.0 | 8.0 | 0.00 | 0.00 | 0.00 | 79 | 1003.4 |
| 20260508222102 | 57 | 180 | 4.0 | 8.0 | 0.00 | 0.00 | 0.00 | 78 | 1003.5 |
| 20260508221548 | 57 | 200 | 6.0 | 8.0 | 0.00 | 0.00 | 0.00 | 78 | 1003.2 |
| 20260508221304 | 57 | 193 | 5.0 | 8.0 | 0.00 | 0.00 | 0.00 | 78 | 1003.2 |
| 20260508220802 | 55 | 190 | 6.0 | 8.0 | 0.00 | 0.00 | 0.00 | 82 | 1003.3 |
| 20260508220035 | 55 | 197 | 6.0 | 8.0 | 0.00 | 0.00 | 0.00 | 82 | 1003.2 |
| 20260508215532 | 55 | 200 | 6.0 | 7.0 | 0.00 | 0.00 | 0.00 | 82 | 1003.2 |
| 20260508215026 | 54 | 192 | 6.0 | 8.0 | 0.00 | 0.00 | 0.00 | 83 | 1003.0 |
| 20260508215017 | 53 | 186 | 5.0 | 8.0 | 0.00 | 0.00 | 0.00 | 83 | 1002.9 |
| 20260508214016 | 53 | 199 | 6.0 | 7.0 | 0.00 | 0.00 | 0.00 | 83 | 1003.0 |
| 20260508213516 | 52 | 191 | 6.0 | 7.0 | 0.00 | 0.00 | 0.00 | 85 | 1002.9 |
| 20260508213011 | 52 | 190 | 6.0 | 6.0 | 0.00 | 0.00 | 0.00 | 89 | 1003.0 |
| 20260508212458 | 51 | 182 | 6.0 | 6.0 | 0.00 | 0.00 | 0.00 | 94 | 1002.8 |
| 20260508211946 | 50 | 180 | 5.0 | 7.0 | 0.00 | 0.00 | 0.00 | 96 | 1002.7 |
| 20260508211447 | 49 | 190 | 6.0 | 7.0 | 0.00 | 0.00 | 0.00 | 97 | 1002.7 |
| 20260508211155 | 49 | 194 | 6.0 | 6.0 | 0.00 | 0.00 | 0.00 | 97 | 1002.8 |
| 20260508210430 | 49 | 174 | 5.0 | 6.0 | 0.00 | 0.00 | 0.00 | 98 | 1002.5 |
| 20260508205914 | 48 | 176 | 5.0 | 6.0 | 0.00 | 0.00 | 0.00 | 98 | 1002.6 |
| 20260508205412 | 47 | 176 | 5.0 | 6.0 | 0.00 | 0.00 | 0.00 | 98 | 1002.5 |
| 20260508204906 | 47 | 175 | 5.0 | 6.0 | 0.00 | 0.00 | 0.00 | 98 | 1002.6 |
| 20260508204559 | 46 | 190 | 6.0 | 6.0 | 0.00 | 0.00 | 0.00 | 98 | 1002.4 |
| 20260508203838 | 46 | 177 | 6.0 | 6.0 | 0.00 | 0.00 | 0.00 | 98 | 1002.4 |
| 20260508203546 | 46 | 186 | 5.0 | 6.0 | 0.00 | 0.00 | 0.00 | 98 | 1002.3 |
| 20260508203251 | 46 | 179 | 5.0 | 6.0 | 0.00 | 0.00 | 0.00 | 98 | 1002.1 |
| 20260508202307 | 45 | 182 | 5.0 | 6.0 | 0.00 | 0.00 | 0.00 | 98 | 1002.1 |
| 20260508201751 | 46 | 189 | 6.0 | 6.0 | 0.00 | 0.00 | 0.00 | 98 | 1002.3 |
| 20260508201247 | 46 | 190 | 6.0 | 6.0 | 0.00 | 0.00 | 0.00 | 98 | 1002.0 |
| 20260508200742 | 46 | 177 | 5.0 | 6.0 | 0.00 | 0.00 | 0.00 | 98 | 1002.0 |
| 20260508200238 | 46 | 191 | 5.0 | 6.0 | 0.00 | 0.00 | 0.00 | 98 | 1001.9 |
| 20260508200158 | 46 | 169 | 5.0 | 6.0 | 0.00 | 0.00 | 0.00 | 98 | 1001.8 |
| 20260508195438 | 46 | 180 | 5.0 | 6.0 | 0.00 | 0.00 | 0.00 | 98 | 1001.8 |
| 20260508194923 | 46 | 175 | 6.0 | 6.0 | 0.00 | 0.00 | 0.00 | 98 | 1001.8 |
| 20260508194152 | 47 | 174 | 6.0 | 6.0 | 0.00 | 0.00 | 0.00 | 98 | 1001.7 |
| 20260508193647 | 46 | 178 | 6.0 | 6.0 | 0.00 | 0.00 | 0.00 | 98 | 1001.5 |
| 20260508193143 | 46 | 176 | 5.0 | 6.0 | 0.00 | 0.00 | 0.00 | 98 | 1001.5 |
| 20260508192850 | 46 | 179 | 5.0 | 6.0 | 0.00 | 0.00 | 0.00 | 97 | 1001.6 |
| 20260508192125 | 46 | 174 | 6.0 | 6.0 | 0.00 | 0.00 | 0.00 | 98 | 1001.4 |
| 20260508191611 | 45 | 177 | 6.0 | 6.0 | 0.00 | 0.00 | 0.00 | 97 | 1001.3 |
| 20260508191047 | 45 | 179 | 6.0 | 7.0 | 0.00 | 0.00 | 0.00 | 97 | 1001.1 |
| 20260508190554 | 46 | 182 | 5.0 | 7.0 | 0.00 | 0.00 | 0.00 | 97 | 1001.3 |
| 20260508190029 | 46 | 187 | 6.0 | 6.0 | 0.00 | 0.00 | 0.00 | 97 | 1000.9 |
| 20260508185523 | 46 | 180 | 4.0 | 6.0 | 0.00 | 0.00 | 0.00 | 97 | 1001.1 |
| 20260508185019 | 46 | 182 | 5.0 | 6.0 | 0.00 | 0.00 | 0.00 | 97 | 1001.0 |
| 20260508184455 | 46 | 174 | 5.0 | 6.0 | 0.00 | 0.00 | 0.00 | 97 | 1001.1 |
| 20260508183952 | 46 | 174 | 6.0 | 6.0 | 0.00 | 0.00 | 0.00 | 97 | 1000.9 |
| 20260508183446 | 46 | 172 | 5.0 | 6.0 | 0.00 | 0.00 | 0.00 | 97 | 1001.0 |
| 20260508182942 | 46 | 172 | 5.0 | 7.0 | 0.00 | 0.00 | 0.00 | 97 | 1001.0 |
| 20260508182438 | 46 | 174 | 6.0 | 7.0 | 0.00 | 0.00 | 0.00 | 97 | 1001.1 |
| 20260508181934 | 45 | 172 | 6.0 | 7.0 | 0.00 | 0.00 | 0.00 | 97 | 1001.1 |
| 20260508181430 | 45 | 175 | 5.0 | 7.0 | 0.00 | 0.00 | 0.00 | 97 | 1001.1 |
| 20260508181139 | 45 | 179 | 6.0 | 7.0 | 0.00 | 0.00 | 0.00 | 97 | 1001.1 |
| 20260508180638 | 45 | 179 | 6.0 | 7.0 | 0.00 | 0.00 | 0.00 | 97 | 1000.9 |
| 20260508175907 | 45 | 180 | 5.0 | 7.0 | 0.00 | 0.00 | 0.00 | 97 | 1001.0 |
| 20260508175403 | 45 | 184 | 6.0 | 7.0 | 0.00 | 0.00 | 0.00 | 97 | 1001.0 |
| 20260508175108 | 45 | 177 | 6.0 | 7.0 | 0.00 | 0.00 | 0.00 | 97 | 1001.0 |
| 20260508174345 | 45 | 183 | 6.0 | 7.0 | 0.00 | 0.00 | 0.00 | 97 | 1000.8 |
| 20260508174105 | 45 | 189 | 6.0 | 6.0 | 0.00 | 0.00 | 0.00 | 97 | 1000.8 |
| 20260508173339 | 45 | 180 | 5.0 | 6.0 | 0.00 | 0.00 | 0.00 | 97 | 1000.7 |
| 20260508172832 | 45 | 190 | 6.0 | 6.0 | 0.00 | 0.00 | 0.00 | 97 | 1000.7 |
| 20260508172329 | 45 | 181 | 6.0 | 7.0 | 0.00 | 0.00 | 0.00 | 96 | 1000.8 |
| 20260508171813 | 46 | 188 | 6.0 | 7.0 | 0.00 | 0.00 | 0.00 | 96 | 1000.7 |
| 20260508171309 | 46 | 177 | 5.0 | 7.0 | 0.00 | 0.00 | 0.00 | 96 | 1000.6 |
| 20260508171037 | 46 | 184 | 6.0 | 7.0 | 0.00 | 0.00 | 0.00 | 96 | 1000.8 |
| 20260508170251 | 46 | 180 | 6.0 | 6.0 | 0.00 | 0.00 | 0.00 | 96 | 1000.7 |
| 20260508165747 | 46 | 174 | 6.0 | 7.0 | 0.00 | 0.00 | 0.00 | 96 | 1000.6 |
| 20260508165241 | 46 | 169 | 6.0 | 7.0 | 0.00 | 0.00 | 0.00 | 97 | 1000.7 |
| 20260508164738 | 46 | 174 | 6.0 | 6.0 | 0.00 | 0.00 | 0.00 | 96 | 1000.8 |
| 20260508164224 | 46 | 179 | 5.0 | 7.0 | 0.00 | 0.00 | 0.00 | 96 | 1000.8 |
| 20260508163710 | 46 | 178 | 6.0 | 7.0 | 0.00 | 0.00 | 0.00 | 96 | 1000.7 |
| 20260508163207 | 46 | 175 | 6.0 | 7.0 | 0.00 | 0.00 | 0.00 | 96 | 1000.7 |
| 20260508162652 | 46 | 174 | 5.0 | 7.0 | 0.00 | 0.00 | 0.00 | 96 | 1000.7 |
| 20260508162412 | 46 | 172 | 6.0 | 6.0 | 0.00 | 0.00 | 0.00 | 96 | 1000.8 |
| 20260508161637 | 46 | 176 | 6.0 | 6.0 | 0.00 | 0.00 | 0.00 | 96 | 1000.7 |
| 20260508161137 | 46 | 178 | 6.0 | 6.0 | 0.00 | 0.00 | 0.00 | 96 | 1000.6 |
| 20260508160635 | 46 | 178 | 6.0 | 7.0 | 0.00 | 0.00 | 0.00 | 96 | 1000.5 |
| 20260508160113 | 46 | 178 | 5.0 | 7.0 | 0.00 | 0.00 | 0.00 | 96 | 1000.6 |
| 20260508155829 | 46 | 169 | 6.0 | 6.0 | 0.00 | 0.00 | 0.00 | 96 | 1000.5 |
| 20260508155106 | 46 | 176 | 5.0 | 6.0 | 0.00 | 0.00 | 0.00 | 96 | 1000.5 |
| 20260508154606 | 46 | 176 | 5.0 | 7.0 | 0.00 | 0.00 | 0.00 | 96 | 1000.7 |
| 20260508154104 | 46 | 172 | 6.0 | 6.0 | 0.00 | 0.00 | 0.00 | 96 | 1000.5 |
| 20260508153600 | 46 | 180 | 6.0 | 6.0 | 0.00 | 0.00 | 0.00 | 96 | 1000.7 |
| 20260508153046 | 46 | 176 | 5.0 | 6.0 | 0.00 | 0.00 | 0.00 | 96 | 1000.5 |
| 20260508152542 | 46 | 177 | 6.0 | 6.0 | 0.00 | 0.00 | 0.00 | 96 | 1000.5 |
| 20260508152038 | 46 | 177 | 6.0 | 6.0 | 0.00 | 0.00 | 0.00 | 96 | 1000.5 |
| 20260508151546 | 46 | 182 | 6.0 | 6.0 | 0.00 | 0.00 | 0.00 | 96 | 1000.7 |
| 20260508151029 | 46 | 178 | 4.0 | 6.0 | 0.00 | 0.00 | 0.00 | 96 | 1000.6 |
| 20260508150526 | 46 | 175 | 5.0 | 6.0 | 0.00 | 0.00 | 0.00 | 96 | 1000.6 |
| 20260508150012 | 46 | 175 | 5.0 | 6.0 | 0.00 | 0.00 | 0.00 | 96 | 1000.7 |
| 20260508145507 | 46 | 171 | 4.0 | 6.0 | 0.00 | 0.00 | 0.00 | 95 | 1000.7 |
| 20260508144952 | 46 | 169 | 5.0 | 6.0 | 0.00 | 0.00 | 0.00 | 95 | 1000.7 |
| 20260508144448 | 47 | 172 | 5.0 | 6.0 | 0.00 | 0.00 | 0.00 | 95 | 1000.6 |
| 20260508143944 | 46 | 175 | 5.0 | 7.0 | 0.00 | 0.00 | 0.00 | 95 | 1000.6 |
| 20260508143932 | 47 | 176 | 6.0 | 7.0 | 0.00 | 0.00 | 0.00 | 95 | 1000.6 |
| 20260508142935 | 47 | 175 | 5.0 | 7.0 | 0.00 | 0.00 | 0.00 | 95 | 1000.7 |
| 20260508142656 | 47 | 172 | 6.0 | 7.0 | 0.00 | 0.00 | 0.00 | 95 | 1000.5 |
| 20260508141917 | 46 | 172 | 5.0 | 6.0 | 0.00 | 0.00 | 0.00 | 95 | 1000.5 |
| 20260508141412 | 46 | 171 | 5.0 | 6.0 | 0.00 | 0.00 | 0.00 | 95 | 1000.4 |
| 20260508140859 | 46 | 174 | 5.0 | 6.0 | 0.00 | 0.00 | 0.00 | 95 | 1000.3 |
| 20260508140355 | 46 | 176 | 5.0 | 6.0 | 0.00 | 0.00 | 0.00 | 95 | 1000.3 |
| 20260508135841 | 47 | 174 | 5.0 | 7.0 | 0.00 | 0.00 | 0.00 | 95 | 1000.3 |
| 20260508135326 | 47 | 168 | 6.0 | 7.0 | 0.00 | 0.00 | 0.00 | 95 | 1000.3 |
| 20260508134812 | 47 | 170 | 6.0 | 6.0 | 0.00 | 0.00 | 0.00 | 95 | 1000.3 |
| 20260508134308 | 47 | 184 | 5.0 | 6.0 | 0.00 | 0.00 | 0.00 | 94 | 1000.3 |
| 20260508133802 | 47 | 175 | 5.0 | 6.0 | 0.00 | 0.00 | 0.00 | 94 | 1000.3 |
| 20260508133303 | 47 | 177 | 6.0 | 6.0 | 0.00 | 0.00 | 0.00 | 94 | 1000.3 |
| 20260508132803 | 47 | 194 | 6.0 | 6.0 | 0.00 | 0.00 | 0.00 | 94 | 1000.4 |
| 20260508132306 | 47 | 192 | 6.0 | 6.0 | 0.00 | 0.00 | 0.00 | 94 | 1000.4 |
| 20260508131757 | 47 | 176 | 5.0 | 6.0 | 0.00 | 0.00 | 0.00 | 93 | 1000.5 |
| 20260508131254 | 47 | 179 | 6.0 | 6.0 | 0.00 | 0.00 | 0.00 | 93 | 1000.5 |
| 20260508131007 | 47 | 186 | 6.0 | 7.0 | 0.00 | 0.00 | 0.00 | 93 | 1000.3 |
| 20260508130245 | 48 | 181 | 5.0 | 7.0 | 0.00 | 0.00 | 0.00 | 92 | 1000.2 |
| 20260508125740 | 48 | 181 | 6.0 | 7.0 | 0.00 | 0.00 | 0.00 | 92 | 1000.3 |
| 20260508125500 | 48 | 188 | 5.0 | 6.0 | 0.00 | 0.00 | 0.00 | 92 | 1000.4 |
| 20260508124732 | 48 | 175 | 5.0 | 6.0 | 0.00 | 0.00 | 0.00 | 91 | 1000.4 |
| 20260508124218 | 48 | 172 | 5.0 | 6.0 | 0.00 | 0.00 | 0.00 | 91 | 1000.5 |
| 20260508123714 | 48 | 172 | 4.0 | 6.0 | 0.00 | 0.00 | 0.00 | 91 | 1000.4 |
| 20260508123210 | 48 | 180 | 5.0 | 6.0 | 0.00 | 0.00 | 0.00 | 91 | 1000.4 |
| 20260508122701 | 49 | 176 | 4.0 | 6.0 | 0.00 | 0.00 | 0.00 | 90 | 1000.4 |
| 20260508122151 | 49 | 175 | 4.0 | 6.0 | 0.00 | 0.00 | 0.00 | 91 | 1000.5 |
| 20260508121631 | 49 | 171 | 5.0 | 6.0 | 0.00 | 0.00 | 0.00 | 90 | 1000.3 |
| 20260508121131 | 49 | 188 | 5.0 | 6.0 | 0.00 | 0.00 | 0.00 | 89 | 1000.3 |
| 20260508120631 | 49 | 174 | 5.0 | 6.0 | 0.00 | 0.00 | 0.00 | 88 | 1000.4 |
| 20260508120126 | 49 | 181 | 5.0 | 6.0 | 0.00 | 0.00 | 0.00 | 87 | 1000.3 |
| 20260508115601 | 49 | 172 | 6.0 | 6.0 | 0.00 | 0.00 | 0.00 | 88 | 1000.1 |
| 20260508115313 | 49 | 169 | 6.0 | 6.0 | 0.00 | 0.00 | 0.00 | 90 | 1000.1 |
| 20260508114551 | 50 | 170 | 6.0 | 6.0 | 0.00 | 0.00 | 0.00 | 90 | 999.9 |
| 20260508114036 | 49 | 177 | 5.0 | 6.0 | 0.00 | 0.00 | 0.00 | 92 | 999.9 |
| 20260508114019 | 49 | 177 | 5.0 | 6.0 | 0.00 | 0.00 | 0.00 | 93 | 999.8 |
| 20260508113030 | 49 | 171 | 5.0 | 6.0 | 0.00 | 0.00 | 0.00 | 94 | 999.7 |
| 20260508112529 | 49 | 166 | 6.0 | 6.0 | 0.00 | 0.00 | 0.00 | 94 | 999.6 |
| 20260508112030 | 49 | 175 | 4.0 | 7.0 | 0.00 | 0.00 | 0.00 | 93 | 999.7 |
| 20260508111750 | 49 | 197 | 6.0 | 7.0 | 0.00 | 0.00 | 0.00 | 93 | 999.7 |
| 20260508111023 | 49 | 180 | 5.0 | 6.0 | 0.00 | 0.00 | 0.00 | 93 | 999.7 |
| 20260508110518 | 49 | 174 | 4.0 | 6.0 | 0.00 | 0.00 | 0.00 | 93 | 999.4 |
| 20260508110014 | 49 | 182 | 6.0 | 6.0 | 0.00 | 0.00 | 0.00 | 93 | 999.5 |
| 20260508105511 | 50 | 175 | 5.0 | 7.0 | 0.00 | 0.00 | 0.00 | 93 | 999.5 |
| 20260508105007 | 50 | 178 | 5.0 | 7.0 | 0.00 | 0.00 | 0.00 | 92 | 999.4 |
| 20260508104452 | 50 | 181 | 5.0 | 7.0 | 0.00 | 0.00 | 0.00 | 92 | 999.6 |
| 20260508104428 | 50 | 188 | 5.0 | 7.0 | 0.00 | 0.00 | 0.00 | 91 | 999.5 |
| 20260508103710 | 50 | 194 | 6.0 | 7.0 | 0.00 | 0.00 | 0.00 | 90 | 999.4 |
| 20260508102940 | 51 | 182 | 6.0 | 7.0 | 0.00 | 0.00 | 0.00 | 89 | 999.4 |
| 20260508102425 | 51 | 195 | 5.0 | 6.0 | 0.00 | 0.00 | 0.00 | 89 | 999.3 |
| 20260508101921 | 51 | 182 | 5.0 | 6.0 | 0.00 | 0.00 | 0.00 | 89 | 999.2 |
| 20260508101418 | 51 | 175 | 5.0 | 6.0 | 0.00 | 0.00 | 0.00 | 89 | 999.2 |
| 20260508100914 | 51 | 175 | 4.0 | 6.0 | 0.00 | 0.00 | 0.00 | 89 | 999.1 |
| 20260508100359 | 51 | 171 | 4.0 | 6.0 | 0.00 | 0.00 | 0.00 | 89 | 999.0 |
| 20260508095857 | 51 | 174 | 5.0 | 6.0 | 0.00 | 0.00 | 0.00 | 88 | 999.0 |
| 20260508095358 | 51 | 172 | 5.0 | 6.0 | 0.00 | 0.00 | 0.00 | 88 | 998.9 |
| 20260508094856 | 52 | 174 | 5.0 | 6.0 | 0.00 | 0.00 | 0.00 | 87 | 998.9 |
| 20260508094352 | 52 | 179 | 4.0 | 6.0 | 0.00 | 0.00 | 0.00 | 86 | 999.0 |
| 20260508093829 | 52 | 172 | 5.0 | 6.0 | 0.00 | 0.00 | 0.00 | 85 | 998.9 |
| 20260508093315 | 52 | 180 | 5.0 | 6.0 | 0.00 | 0.00 | 0.00 | 84 | 998.9 |
| 20260508092810 | 53 | 181 | 5.0 | 6.0 | 0.00 | 0.00 | 0.00 | 83 | 998.6 |
| 20260508092312 | 53 | 187 | 5.0 | 6.0 | 0.00 | 0.00 | 0.00 | 82 | 998.6 |
| 20260508091757 | 53 | 179 | 5.0 | 6.0 | 0.00 | 0.00 | 0.00 | 81 | 998.6 |
| 20260508091257 | 54 | 178 | 5.0 | 6.0 | 0.00 | 0.00 | 0.00 | 80 | 998.4 |
| 20260508090744 | 54 | 196 | 6.0 | 6.0 | 0.00 | 0.00 | 0.00 | 77 | 998.4 |
| 20260508090446 | 54 | 178 | 4.0 | 6.0 | 0.00 | 0.00 | 0.00 | 76 | 998.1 |
| 20260508085715 | 55 | 170 | 5.0 | 6.0 | 0.00 | 0.00 | 0.00 | 77 | 998.2 |
| 20260508085155 | 56 | 172 | 5.0 | 6.0 | 0.00 | 0.00 | 0.00 | 77 | 998.1 |
| 20260508084707 | 56 | 176 | 5.0 | 6.0 | 0.00 | 0.00 | 0.00 | 75 | 998.2 |
| 20260508084142 | 56 | 179 | 4.0 | 6.0 | 0.00 | 0.00 | 0.00 | 73 | 998.2 |
| 20260508083619 | 56 | 178 | 4.0 | 6.0 | 0.00 | 0.00 | 0.00 | 72 | 998.1 |
| 20260508083338 | 56 | 176 | 4.0 | 6.0 | 0.00 | 0.00 | 0.00 | 73 | 997.9 |
| 20260508082831 | 56 | 178 | 5.0 | 6.0 | 0.00 | 0.00 | 0.00 | 73 | 997.8 |
| 20260508082045 | 56 | 172 | 4.0 | 6.0 | 0.00 | 0.00 | 0.00 | 72 | 997.7 |
| 20260508081540 | 56 | 183 | 4.0 | 6.0 | 0.00 | 0.00 | 0.00 | 72 | 997.7 |
| 20260508081036 | 56 | 180 | 4.0 | 6.0 | 0.00 | 0.00 | 0.00 | 72 | 997.6 |
| 20260508080532 | 56 | 182 | 5.0 | 6.0 | 0.00 | 0.00 | 0.00 | 72 | 997.6 |
| 20260508080024 | 57 | 180 | 5.0 | 6.0 | 0.00 | 0.00 | 0.00 | 70 | 997.5 |
| 20260508075738 | 58 | 179 | 5.0 | 6.0 | 0.00 | 0.00 | 0.00 | 68 | 997.3 |
| 20260508075010 | 58 | 186 | 5.0 | 6.0 | 0.00 | 0.00 | 0.00 | 67 | 997.4 |
| 20260508074728 | 58 | 180 | 4.0 | 7.0 | 0.00 | 0.00 | 0.00 | 66 | 997.4 |
| 20260508073953 | 59 | 179 | 5.0 | 7.0 | 0.00 | 0.00 | 0.00 | 65 | 997.4 |
| 20260508073449 | 59 | 189 | 5.0 | 7.0 | 0.00 | 0.00 | 0.00 | 65 | 997.3 |
| 20260508072946 | 59 | 179 | 4.0 | 7.0 | 0.00 | 0.00 | 0.00 | 63 | 997.4 |
| 20260508072418 | 60 | 188 | 5.0 | 6.0 | 0.00 | 0.00 | 0.00 | 62 | 997.0 |
| 20260508071915 | 61 | 168 | 5.0 | 7.0 | 0.00 | 0.00 | 0.00 | 59 | 997.1 |
| 20260508071411 | 61 | 169 | 5.0 | 8.0 | 0.00 | 0.00 | 0.00 | 57 | 997.0 |
| 20260508070908 | 62 | 189 | 4.0 | 8.0 | 0.00 | 0.00 | 0.00 | 55 | 997.1 |
| 20260508070403 | 62 | 163 | 4.0 | 6.0 | 0.00 | 0.00 | 0.00 | 52 | 996.8 |
| 20260508065853 | 63 | 167 | 4.0 | 6.0 | 0.00 | 0.00 | 0.00 | 48 | 996.8 |
| 20260508065405 | 63 | 171 | 4.0 | 6.0 | 0.00 | 0.00 | 0.00 | 47 | 996.8 |
| 20260508065111 | 63 | 178 | 4.0 | 6.0 | 0.00 | 0.00 | 0.00 | 47 | 996.7 |
| 20260508064353 | 64 | 177 | 5.0 | 6.0 | 0.00 | 0.00 | 0.00 | 46 | 996.6 |
| 20260508063841 | 64 | 175 | 5.0 | 6.0 | 0.00 | 0.00 | 0.00 | 45 | 996.4 |
| 20260508063321 | 64 | 176 | 4.0 | 5.0 | 0.00 | 0.00 | 0.00 | 46 | 996.4 |
| 20260508062821 | 64 | 180 | 4.0 | 6.0 | 0.00 | 0.00 | 0.00 | 45 | 996.3 |
| 20260508062321 | 65 | 178 | 4.0 | 6.0 | 0.00 | 0.00 | 0.00 | 43 | 996.4 |
| 20260508061815 | 65 | 176 | 4.0 | 6.0 | 0.00 | 0.00 | 0.00 | 43 | 996.5 |
| 20260508061311 | 65 | 175 | 5.0 | 6.0 | 0.00 | 0.00 | 0.00 | 42 | 996.3 |
| 20260508060806 | 65 | 180 | 5.0 | 6.0 | 0.00 | 0.00 | 0.00 | 42 | 996.3 |
| 20260508060303 | 66 | 171 | 5.0 | 6.0 | 0.00 | 0.00 | 0.00 | 44 | 996.1 |
| 20260508055802 | 66 | 174 | 4.0 | 6.0 | 0.00 | 0.00 | 0.00 | 44 | 996.3 |
| 20260508055255 | 66 | 185 | 5.0 | 6.0 | 0.00 | 0.00 | 0.00 | 40 | 996.2 |
| 20260508054750 | 66 | 190 | 5.0 | 6.0 | 0.00 | 0.00 | 0.00 | 40 | 996.3 |
| 20260508054246 | 67 | 169 | 5.0 | 7.0 | 0.00 | 0.00 | 0.00 | 38 | 996.4 |
| 20260508053742 | 67 | 191 | 5.0 | 7.0 | 0.00 | 0.00 | 0.00 | 40 | 996.4 |
| 20260508053229 | 67 | 196 | 6.0 | 6.0 | 0.00 | 0.00 | 0.00 | 38 | 996.2 |
| 20260508052716 | 67 | 178 | 5.0 | 8.0 | 0.00 | 0.00 | 0.00 | 38 | 996.2 |
| 20260508052210 | 67 | 195 | 5.0 | 9.0 | 0.00 | 0.00 | 0.00 | 38 | 996.1 |
| 20260508051655 | 67 | 177 | 5.0 | 9.0 | 0.00 | 0.00 | 0.00 | 38 | 996.3 |
| 20260508051410 | 67 | 182 | 6.0 | 8.0 | 0.00 | 0.00 | 0.00 | 39 | 996.2 |
| 20260508050647 | 68 | 176 | 4.0 | 7.0 | 0.00 | 0.00 | 0.00 | 40 | 996.5 |
| 20260508050143 | 68 | 180 | 4.0 | 6.0 | 0.00 | 0.00 | 0.00 | 38 | 996.6 |
| 20260508045638 | 68 | 267 | 2.0 | 4.0 | 0.00 | 0.00 | 0.00 | 40 | 996.5 |
| 20260508045357 | 68 | 128 | 0.0 | 4.0 | 0.00 | 0.00 | 0.00 | 38 | 996.5 |
| 20260508044622 | 68 | 219 | 1.0 | 4.0 | 0.00 | 0.00 | 0.00 | 35 | 996.6 |
| 20260508044116 | 69 | 98 | 1.0 | 3.0 | 0.00 | 0.00 | 0.00 | 38 | 996.5 |
| 20260508043840 | 69 | 81 | 1.0 | 4.0 | 0.00 | 0.00 | 0.00 | 34 | 996.5 |
| 20260508043107 | 70 | 269 | 2.0 | 4.0 | 0.00 | 0.00 | 0.00 | 34 | 996.6 |
| 20260508042605 | 71 | 253 | 1.0 | 4.0 | 0.00 | 0.00 | 0.00 | 29 | 996.8 |
| 20260508042048 | 71 | 207 | 0.0 | 4.0 | 0.00 | 0.00 | 0.00 | 30 | 996.8 |
| 20260508041549 | 71 | 101 | 0.0 | 3.0 | 0.00 | 0.00 | 0.00 | 34 | 996.7 |
| 20260508041049 | 70 | 195 | 1.0 | 3.0 | 0.00 | 0.00 | 0.00 | 34 | 996.6 |
| 20260508040810 | 71 | 95 | 2.0 | 3.0 | 0.00 | 0.00 | 0.00 | 34 | 996.8 |
| 20260508040033 | 70 | 56 | 0.0 | 4.0 | 0.00 | 0.00 | 0.00 | 40 | 997.1 |
| 20260508035529 | 71 | 37 | 1.0 | 4.0 | 0.00 | 0.00 | 0.00 | 35 | 996.9 |
| 20260508035025 | 70 | 286 | 2.0 | 3.0 | 0.00 | 0.00 | 0.00 | 36 | 997.1 |
| 20260508034520 | 71 | 310 | 1.0 | 3.0 | 0.00 | 0.00 | 0.00 | 33 | 997.0 |
| 20260508034016 | 70 | 264 | 2.0 | 4.0 | 0.00 | 0.00 | 0.00 | 31 | 997.1 |
| 20260508033940 | 70 | 129 | 0.0 | 4.0 | 0.00 | 0.00 | 0.00 | 35 | 997.2 |
| 20260508032958 | 69 | 17 | 2.0 | 4.0 | 0.00 | 0.00 | 0.00 | 36 | 997.3 |
| 20260508032444 | 69 | 94 | 2.0 | 3.0 | 0.00 | 0.00 | 0.00 | 34 | 997.3 |
| 20260508031930 | 71 | 118 | 2.0 | 4.0 | 0.00 | 0.00 | 0.00 | 30 | 997.2 |
| 20260508031904 | 70 | 283 | 0.0 | 4.0 | 0.00 | 0.00 | 0.00 | 36 | 997.2 |
| 20260508030921 | 70 | 287 | 4.0 | 4.0 | 0.00 | 0.00 | 0.00 | 34 | 997.4 |
| 20260508030417 | 68 | 60 | 2.0 | 3.0 | 0.00 | 0.00 | 0.00 | 38 | 997.6 |
| 20260508025904 | 69 | 109 | 1.0 | 4.0 | 0.00 | 0.00 | 0.00 | 33 | 997.8 |
| 20260508025400 | 70 | 274 | 2.0 | 4.0 | 0.00 | 0.00 | 0.00 | 34 | 997.9 |
| 20260508024856 | 69 | 262 | 2.0 | 4.0 | 0.00 | 0.00 | 0.00 | 35 | 997.6 |
| 20260508024834 | 70 | 27 | 2.0 | 4.0 | 0.00 | 0.00 | 0.00 | 36 | 997.9 |